User: anonymous   Login
Location: Unspecified
(0.0000°N, 0.0000°E)
Time: 04:32:08
(UTC+00:00)
Language:

Diapason D-1A - Orbit

View from above orbital plane
View from above orbital plane
View from above satellite
View from above satellite

Ground track
Ground track

The orbit data is extracted from the following two-line orbital elements,

1  2016U 66013A   18344.20155163  .00000182  00000-0  56361-4 0  9994
2  2016  34.0944  16.5055 1187477 358.0864   1.5468 12.59725324393094
Epoch (UTC): 10 December 2018 04:50:14
Eccentricity: 0.1187477
inclination: 34.0944°
perigee height: 497 km
apogee height: 2350 km
right ascension of ascending node: 16.5055°
argument of perigee: 358.0864°
revolutions per day: 12.59725324
mean anomaly at epoch: 1.5468°
orbit number at epoch: 39309

The dashed part of the orbit path shows where the satellite is in the earth's shadow,  

DLR